Theta_e
354 353 354 352 352 353 352 352 352 352 350 348 347 346 346 344 345 345 345 347 349 350 348 345 344 345 346 348 349 350 351 351 350 349 348 347 345 342 340 339 339 340 340 341 341 340 339 337 335 333 331 330 332 334 335 336 336 336 337 339 340 340 340 340 341 342 341 340 339 338 337 337 337 337 337 338 340 341 342 342 341 340 337 335 337
355 354 355 355 354 356 355 354 352 350 349 348 347 346 346 345 345 343 344 347 348 349 349 348 348 348 349 352 353 352 352 350 348 347 345 342 340 339 339 339 341 342 341 340 342 341 339 336 333 330 327 326 328 332 333 334 335 336 336 337 339 340 339 339 340 341 342 342 341 340 338 337 336 337 338 338 338 339 340 340 340 340 339 336 335
355 356 356 356 356 356 357 355 351 349 350 351 350 347 346 347 347 347 346 346 348 348 348 349 350 349 349 351 351 351 350 347 344 344 343 340 340 341 341 340 342 343 340 340 341 340 338 334 330 328 326 326 328 330 331 332 333 334 335 336 338 339 339 339 339 340 341 341 342 341 340 339 338 338 339 339 339 340 340 340 340 340 340 339 337
355 356 357 355 356 357 357 355 352 353 354 354 353 349 349 350 348 348 348 348 348 349 350 349 349 349 348 349 347 344 341 339 339 341 342 340 339 339 338 339 342 343 342 341 339 336 333 330 326 325 327 329 330 331 331 333 334 334 334 336 338 338 338 338 338 339 340 341 342 342 341 341 340 339 339 339 338 340 341 341 341 342 343 343 342
353 355 355 353 354 355 356 354 353 355 357 356 354 350 351 351 349 349 350 349 348 349 348 347 347 346 344 341 335 332 334 334 334 335 337 339 338 337 337 338 338 337 336 333 330 328 327 326 326 327 329 330 332 334 335 336 337 337 337 338 338 338 337 337 337 338 339 340 341 341 341 342 341 339 339 339 338 339 340 341 343 344 345 345 344
351 353 353 352 353 353 354 354 354 356 357 356 352 352 353 352 350 351 351 348 345 344 341 338 337 334 329 326 322 325 330 331 330 329 330 331 330 331 332 331 327 325 325 324 324 325 325 325 326 328 330 331 333 334 335 337 337 337 337 336 336 336 336 336 337 338 338 338 338 338 339 340 340 340 341 341 338 338 338 339 340 342 343 343 344
350 351 352 352 352 351 352 354 355 356 356 356 354 354 354 352 351 351 350 346 339 333 329 325 324 322 320 320 319 320 325 330 330 329 328 326 327 327 325 323 320 320 322 322 324 326 325 326 327 328 330 331 332 333 334 335 336 336 335 335 335 335 335 336 337 336 336 336 336 337 337 338 338 339 341 341 340 339 338 338 337 338 339 340 341
349 350 352 352 351 350 351 353 354 355 355 355 356 356 354 351 351 350 346 339 330 324 322 321 320 320 319 319 318 319 323 328 329 330 332 334 334 332 328 328 327 325 324 326 331 333 331 329 330 329 329 329 331 332 334 334 334 335 334 334 334 334 334 335 334 334 335 335 335 335 336 336 336 336 338 339 339 339 338 337 336 336 336 336 338
349 350 351 350 350 350 350 351 353 355 355 354 356 356 353 350 348 346 339 330 324 322 322 321 321 321 320 319 319 319 320 322 323 325 329 332 333 332 333 333 329 326 326 329 335 337 335 333 332 329 327 328 331 333 334 333 333 332 332 332 332 333 333 334 333 333 334 334 334 335 335 335 334 335 336 336 337 338 337 337 335 335 334 334 335
350 350 350 348 349 349 349 351 353 354 355 355 356 355 352 348 343 338 331 326 323 322 322 322 322 321 320 319 319 319 319 318 318 318 324 330 333 333 334 330 326 327 328 329 333 336 336 336 333 328 326 328 331 333 333 332 331 331 331 332 332 333 334 334 333 333 333 333 333 334 334 334 334 335 335 335 335 336 337 336 335 335 334 333 333
350 350 350 348 348 348 348 351 354 355 355 355 355 353 350 344 337 332 328 326 324 323 323 323 323 321 318 317 318 319 318 318 317 319 325 330 331 331 330 326 326 329 328 331 335 337 337 335 331 327 326 328 330 331 332 332 331 332 332 332 332 332 333 333 333 333 333 333 333 333 333 333 334 333 333 333 334 335 335 334 334 333 332 332 333
350 349 349 349 347 348 349 352 354 354 355 356 355 352 347 340 332 329 328 327 325 324 324 323 323 321 318 316 318 318 318 317 317 318 322 325 326 327 326 323 325 326 328 334 338 336 334 331 327 327 327 328 328 329 331 332 332 332 332 330 330 329 331 331 331 332 333 332 332 332 332 332 331 331 331 331 332 332 332 332 331 331 331 330 330
350 348 348 347 346 348 351 353 354 354 355 355 354 350 344 336 330 328 329 327 325 324 323 323 323 321 318 316 316 316 316 317 316 317 319 321 322 323 322 321 321 323 325 331 334 331 328 327 326 326 327 327 328 329 330 332 332 332 331 330 329 329 329 330 331 332 331 330 330 331 331 331 330 330 330 330 331 331 331 331 331 331 331 330 329
349 348 347 346 346 349 351 353 353 354 354 354 352 349 342 334 330 329 330 328 326 324 323 322 322 320 318 317 316 316 316 316 316 317 318 319 319 320 319 319 320 322 325 328 328 327 325 325 325 325 325 326 328 329 330 331 331 331 330 330 330 330 330 330 330 330 329 329 330 330 330 329 327 327 328 329 330 330 331 331 330 330 330 330 330
348 347 346 345 346 348 350 352 352 353 354 353 352 349 342 334 330 329 330 329 326 324 322 321 321 320 319 318 318 317 317 316 316 316 317 317 319 319 319 319 320 324 327 328 326 325 325 324 324 324 324 325 327 329 330 331 330 329 329 329 329 329 329 329 329 328 328 328 329 329 329 327 325 325 327 330 330 329 329 328 327 327 328 329 328
347 346 346 346 347 349 351 352 352 353 353 352 352 348 343 335 330 330 330 329 326 324 322 321 321 320 319 319 319 318 317 317 316 316 316 318 321 322 321 320 321 326 332 331 328 326 325 324 324 323 323 323 325 327 328 328 328 328 328 328 328 328 328 328 327 327 328 328 328 329 328 326 323 325 328 330 328 325 323 322 321 322 325 327 327
346 346 346 347 348 350 352 352 352 352 352 352 350 345 341 335 330 329 330 329 327 324 322 321 321 319 319 319 319 318 317 316 316 316 317 319 322 323 321 319 322 329 333 331 329 327 325 324 324 323 324 324 325 327 328 327 327 327 327 328 328 328 328 328 327 327 328 327 328 329 328 325 322 324 327 327 323 320 318 318 318 319 322 325 327
346 347 346 347 349 350 352 353 353 352 351 351 350 345 341 336 330 328 329 328 328 324 322 321 320 319 318 318 319 319 318 317 316 317 318 319 320 320 318 319 324 327 328 327 327 325 323 322 322 322 323 325 329 331 331 331 330 328 327 328 328 328 328 328 328 327 327 327 327 328 327 324 323 324 324 322 319 318 317 318 319 320 321 323 325
347 348 347 348 350 351 352 353 353 353 352 351 350 349 345 339 332 328 327 327 327 324 321 320 319 319 318 319 320 319 318 317 317 317 318 319 318 318 319 322 325 327 327 328 328 326 324 323 322 323 323 324 329 332 333 333 332 330 329 328 328 328 328 328 327 327 326 326 326 327 326 323 322 323 322 320 318 318 317 318 319 320 321 321 322
347 348 348 349 350 351 352 353 353 353 352 352 352 351 348 342 334 328 328 329 329 326 321 320 319 319 320 320 320 319 319 318 317 318 319 319 318 319 321 325 328 329 330 331 330 328 327 328 327 326 326 324 326 328 330 332 332 332 331 330 328 327 327 328 329 328 328 327 326 325 325 323 323 323 322 320 318 318 317 318 318 319 319 320 321
347 348 349 349 350 351 352 352 353 354 353 354 354 352 349 344 337 331 329 330 331 327 322 320 319 319 320 320 319 319 319 318 318 319 319 319 319 321 325 328 329 330 331 331 331 329 329 330 329 329 328 327 327 327 327 329 332 333 333 332 330 328 328 331 331 330 329 329 328 327 325 324 324 324 322 320 318 318 317 317 317 318 318 319 320
348 348 350 349 351 352 353 354 355 356 355 355 354 353 349 345 340 334 331 331 332 327 322 320 319 319 320 320 321 320 319 318 318 318 319 320 322 325 327 329 330 331 331 331 331 331 330 330 330 329 329 329 329 329 328 328 331 333 333 332 331 329 329 330 331 330 330 329 329 329 327 325 325 325 323 321 319 318 318 317 317 318 318 319 319
348 349 350 350 351 352 353 355 357 357 357 356 355 353 349 345 341 337 333 332 332 328 322 320 321 323 323 324 326 325 320 318 317 318 320 322 325 328 330 331 331 331 330 330 331 330 330 330 330 329 329 330 330 330 329 328 330 332 331 329 328 327 326 327 326 327 328 328 329 330 328 326 326 326 325 323 320 318 318 318 317 317 318 318 319
348 349 350 351 352 353 353 355 358 358 357 356 354 352 349 346 344 340 335 333 333 330 322 320 326 331 331 331 332 328 322 318 317 318 321 324 327 331 332 332 331 331 330 330 330 330 330 330 329 328 329 330 330 330 329 328 329 330 329 327 327 327 326 325 324 324 326 327 328 328 327 327 327 328 327 326 323 319 318 319 318 318 318 318 319
348 348 349 350 351 352 353 354 355 356 356 355 354 352 350 348 346 343 338 335 335 330 323 325 333 338 338 338 334 328 322 318 318 320 322 326 330 333 333 333 332 330 329 329 330 330 330 329 329 329 329 330 330 330 329 328 328 329 329 327 328 328 327 325 324 323 323 324 324 324 325 327 328 329 328 328 326 322 321 321 320 320 320 319 319
349 348 348 348 349 350 351 352 353 354 354 354 353 352 350 349 348 346 342 340 337 331 328 333 338 340 341 338 331 327 324 319 318 321 322 325 329 331 330 330 328 327 327 329 331 330 330 329 328 329 329 330 330 329 329 328 328 330 330 329 328 328 327 325 322 321 320 320 321 323 325 328 329 328 328 328 327 326 325 324 322 322 322 321 319
349 349 348 348 348 349 349 350 351 352 352 353 353 352 350 349 349 348 344 342 339 336 336 339 339 341 341 334 326 327 327 320 318 320 319 321 323 324 324 323 323 325 326 328 329 328 327 326 326 327 327 328 328 328 328 329 330 331 331 330 329 328 326 322 321 321 320 319 321 323 325 328 328 328 327 327 327 327 327 324 322 324 324 322 320
351 351 350 350 348 349 349 350 351 352 352 351 352 351 349 347 347 347 344 342 341 339 339 339 338 339 339 332 326 327 325 319 319 320 319 320 320 320 320 321 323 325 326 326 325 324 324 324 324 324 324 325 326 327 329 330 330 331 332 331 330 328 325 323 321 321 321 320 320 322 325 326 326 327 327 327 328 328 326 324 323 324 324 323 321
355 355 353 352 351 351 351 351 352 352 351 351 350 349 348 346 344 344 343 342 341 340 339 338 337 337 337 335 330 326 321 319 321 320 320 320 320 320 321 322 322 323 323 324 323 323 324 324 324 324 325 326 326 328 330 331 330 331 331 329 329 328 327 325 323 322 321 320 320 322 324 325 325 325 326 326 327 327 326 324 324 324 323 322 321
356 358 357 354 353 352 352 352 352 351 351 350 349 347 346 345 343 343 343 342 341 340 338 337 335 334 336 337 331 323 321 321 321 321 321 321 321 321 321 321 322 322 322 323 323 323 324 324 325 326 326 326 326 328 329 329 329 329 329 328 328 328 328 327 324 322 322 321 321 322 323 324 323 323 323 324 325 326 325 324 324 323 322 322 322
354 356 358 356 355 354 352 353 352 351 351 350 348 346 344 344 344 342 341 341 341 340 337 334 334 332 334 335 329 322 321 322 321 322 321 321 321 321 322 322 322 322 322 323 323 323 325 326 327 328 327 326 326 327 328 328 328 328 328 329 329 328 328 326 323 322 322 321 321 322 322 322 322 322 322 323 324 325 324 323 323 322 321 322 322
350 350 353 354 355 354 353 353 352 351 350 347 346 347 345 345 343 339 339 339 338 338 334 332 334 333 332 331 326 321 321 322 322 322 321 321 321 321 322 322 322 322 322 322 322 323 325 328 329 329 329 327 326 327 327 328 328 328 328 329 328 329 328 325 323 322 322 321 321 321 322 322 322 322 322 322 323 323 322 322 322 321 321 322 322
350 351 351 351 354 355 355 354 353 351 349 347 346 348 347 345 340 337 336 336 335 334 333 333 336 333 329 327 324 322 322 322 322 322 322 322 321 321 322 322 322 323 323 322 322 323 326 328 330 330 329 327 327 328 327 327 328 328 327 328 328 328 328 326 324 322 322 322 321 321 321 320 320 321 321 321 321 321 320 321 321 321 322 322 321
348 353 354 353 354 355 355 354 353 352 350 348 348 348 347 343 339 336 336 336 335 333 332 334 335 333 329 326 323 322 323 323 323 323 322 322 322 322 323 323 323 324 324 324 323 323 326 328 330 330 328 327 328 328 328 328 328 327 327 327 327 327 327 327 324 322 322 322 322 321 321 320 319 320 321 321 320 320 320 321 321 322 322 322 321
342 347 351 353 352 352 351 352 353 352 351 350 350 348 345 341 339 338 337 337 336 334 332 333 335 335 333 327 322 322 323 323 323 323 323 323 323 323 323 323 323 324 325 326 325 324 325 327 329 329 328 327 327 328 328 327 327 327 326 325 325 326 327 327 324 321 321 322 322 322 322 321 319 320 321 321 320 320 320 321 321 322 323 323 321
336 338 342 347 349 349 349 350 352 353 351 351 350 348 344 341 340 339 338 338 336 334 333 335 336 336 333 327 323 322 323 323 323 323 322 323 324 323 324 324 324 325 326 327 327 326 326 327 329 330 329 328 328 328 328 328 327 326 325 324 324 325 326 326 325 322 321 321 322 322 322 322 320 320 322 322 320 319 320 321 321 322 323 323 321
337 337 339 342 345 347 348 350 352 352 351 350 349 347 345 342 340 339 339 338 336 334 334 336 337 335 333 331 328 325 323 323 323 323 322 323 323 324 324 325 326 326 327 328 328 328 328 329 329 330 329 329 328 328 328 328 327 326 325 325 325 325 326 327 326 323 321 320 321 322 322 322 321 320 321 321 319 320 321 321 321 322 324 324 321
339 342 343 346 350 351 351 352 354 353 352 351 350 348 347 345 342 340 340 338 336 334 335 336 335 334 333 333 332 329 327 324 323 323 323 323 323 323 324 326 327 328 328 329 330 330 329 329 329 329 329 328 328 328 328 327 327 326 325 325 324 325 326 326 324 322 321 320 321 322 322 322 321 320 319 318 319 320 321 321 322 323 324 324 322
342 344 346 352 357 358 356 356 357 355 355 354 352 351 350 348 346 343 341 338 335 335 335 335 335 335 334 333 332 332 330 328 326 326 325 324 324 324 326 327 328 329 330 331 331 331 330 330 329 328 328 328 327 327 327 328 328 327 326 325 324 325 326 325 322 321 321 321 320 321 323 322 321 319 317 318 320 322 322 322 323 324 324 324 323
344 345 349 354 358 359 360 360 359 357 357 356 354 353 351 350 348 343 339 336 335 334 334 334 335 335 335 334 334 335 335 333 331 330 328 328 327 327 329 330 330 332 332 332 332 332 331 331 329 328 328 328 328 328 327 327 328 327 326 324 324 325 325 323 322 321 321 321 321 321 322 322 321 318 317 319 322 323 323 323 323 324 325 324 323
343 343 348 353 357 359 360 359 359 358 356 354 353 352 349 348 346 341 337 336 335 335 334 335 336 336 336 336 337 337 338 337 336 335 334 334 333 333 334 334 334 334 333 332 333 332 332 331 330 329 329 328 328 328 327 326 327 327 326 325 325 326 325 323 322 322 321 321 321 321 322 322 320 318 318 320 322 324 324 324 324 324 324 324 324
341 340 343 349 355 358 359 358 358 356 354 353 352 350 347 345 343 341 339 339 338 338 338 338 339 339 339 340 340 341 340 340 339 338 337 337 337 336 336 335 335 335 333 332 332 332 332 331 330 330 329 329 328 328 327 325 326 326 325 325 325 325 325 324 323 321 320 320 321 321 321 321 320 319 320 323 324 324 324 324 324 323 323 323 324
339 339 343 349 354 356 356 356 355 354 352 351 350 347 344 343 343 343 342 341 342 343 344 344 344 344 343 342 342 342 341 340 339 338 336 335 334 334 335 334 333 334 333 331 332 332 331 331 331 330 330 329 329 329 327 325 326 326 325 324 324 325 325 325 322 319 318 320 321 321 321 321 320 320 322 324 324 324 324 324 323 322 322 323 323
339 344 349 352 355 356 352 350 351 351 350 349 347 346 345 344 344 345 344 344 344 343 341 340 341 344 345 345 343 342 341 340 339 337 336 335 333 333 334 333 333 334 331 330 331 332 331 331 330 329 329 330 330 328 326 326 326 326 325 324 324 325 324 322 319 317 318 319 320 320 321 321 321 322 324 324 324 324 324 323 322 322 322 322 323
344 352 355 355 356 352 347 345 348 349 348 347 345 344 344 344 344 344 341 339 335 330 327 327 329 333 338 340 342 342 341 341 340 338 337 336 335 334 334 334 333 333 331 329 329 330 331 332 329 327 328 330 330 328 326 326 326 326 325 324 324 324 322 319 317 317 318 319 320 321 321 321 322 324 324 324 324 324 323 322 322 322 322 323 323
351 354 354 354 352 346 341 343 344 345 346 345 343 343 344 342 340 336 332 329 327 325 324 324 326 329 331 333 336 339 341 341 341 340 338 336 335 335 334 333 332 332 331 327 324 326 330 332 329 326 328 330 329 328 326 326 325 325 324 324 324 323 320 318 317 317 318 319 320 321 321 322 323 323 323 323 323 322 322 321 322 322 322 322 322
351 348 346 346 345 340 339 341 343 343 345 345 344 345 342 336 332 329 327 326 326 327 325 325 327 330 330 330 331 334 337 339 339 338 335 333 333 333 333 333 331 331 330 327 325 326 330 331 329 328 328 329 328 327 327 326 325 325 325 325 324 322 319 317 316 317 318 319 320 321 322 323 323 322 323 323 322 321 321 321 321 321 321 320 321
345 342 342 342 340 337 336 340 343 344 344 342 341 339 335 331 328 326 325 323 323 325 326 326 327 329 327 326 327 331 333 335 334 333 332 331 331 333 333 333 331 330 329 329 329 330 331 331 329 328 328 328 327 326 327 326 325 325 326 324 322 321 319 316 316 317 318 319 320 321 323 323 322 322 322 322 321 321 321 320 320 320 320 320 320
341 340 342 341 339 337 336 338 341 342 340 337 335 331 329 327 325 323 322 321 320 322 323 323 324 324 323 324 327 330 332 332 332 332 331 330 330 331 332 332 331 329 328 328 329 330 330 329 329 327 327 327 327 326 325 325 325 326 325 323 321 320 317 314 314 316 318 320 321 322 323 322 322 321 321 320 320 320 320 319 319 319 319 319 320
339 339 340 339 339 340 338 336 338 338 336 332 328 324 323 323 322 322 322 321 319 319 319 320 320 322 325 328 331 332 332 332 331 331 330 330 330 330 330 330 330 329 329 329 328 329 328 328 328 327 326 327 326 324 324 325 325 325 323 321 321 318 314 312 315 318 320 321 322 322 322 322 321 321 320 320 319 319 319 319 319 319 318 319 319
338 338 338 337 338 340 338 335 334 333 329 326 324 322 321 322 322 322 321 319 318 318 318 318 319 321 325 329 330 331 331 331 331 331 331 330 330 329 329 328 328 328 328 328 328 328 328 328 328 327 326 325 324 323 322 323 323 322 321 320 318 314 311 313 317 321 322 322 321 321 321 321 320 320 319 319 318 318 318 318 318 318 318 318 318
Wind_Speed
20 21 20 22 21 20 21 19 18 17 16 16 14 13 14 12 12 14 13 12 10 8 7 8 8 7 8 7 6 6 6 6 4 4 4 5 6 7 7 7 8 8 9 9 8 7 7 8 10 12 13 15 16 16 16 16 16 17 17 17 17 19 19 17 18 19 19 21 20 19 19 19 19 20 19 19 19 21 23 25 26 28 29 28 28
21 21 21 20 20 20 19 18 17 17 16 14 13 13 13 12 12 12 12 12 11 9 8 7 8 7 7 7 7 6 6 4 3 3 5 6 7 7 6 6 7 8 10 10 8 8 9 12 15 16 16 16 17 16 17 18 18 18 17 17 17 18 18 15 16 17 18 18 18 19 19 18 18 18 17 17 16 16 17 19 20 23 27 29 29
25 23 22 21 21 22 20 19 17 17 16 14 14 14 13 12 11 11 11 11 10 9 8 7 7 8 8 8 7 6 5 4 4 3 2 3 3 3 5 6 5 7 10 11 11 12 14 16 17 16 15 15 16 16 17 18 19 18 17 17 17 17 17 15 14 15 16 16 16 16 19 21 21 17 15 15 15 16 15 16 17 17 20 23 27
28 25 25 22 22 23 22 21 19 19 18 16 16 15 14 13 11 11 10 10 10 9 8 8 8 8 8 8 6 5 5 5 4 4 3 4 4 4 5 5 5 7 10 11 13 14 14 15 14 13 13 13 14 14 15 16 17 17 16 16 16 16 16 15 14 14 15 15 12 14 17 19 18 17 18 19 17 17 16 16 16 17 17 17 22
29 27 27 24 24 24 23 22 20 22 21 18 18 16 14 14 12 11 11 11 11 9 9 9 8 8 8 7 6 6 6 5 6 7 7 8 8 8 9 9 10 11 13 13 13 12 12 11 10 10 11 11 12 12 12 13 13 13 13 13 13 14 15 15 14 12 13 13 12 13 14 12 13 17 22 22 18 15 14 13 13 15 17 17 19
29 29 29 27 26 25 23 23 22 22 22 19 17 15 14 14 13 13 12 11 11 9 9 8 7 8 7 7 7 7 7 7 8 7 8 10 11 11 12 12 12 11 11 10 9 8 8 9 9 9 10 10 10 10 11 11 11 11 11 12 12 13 14 15 14 12 12 12 12 12 12 12 15 18 20 21 22 19 17 16 14 15 17 18 19
32 31 31 29 28 27 26 25 23 22 21 19 17 16 15 15 14 14 13 12 10 9 8 7 6 6 6 7 7 7 7 7 7 6 6 6 6 8 9 8 8 7 7 7 6 5 6 8 9 9 9 10 10 9 9 9 9 10 10 12 12 11 12 13 13 13 13 13 13 13 13 14 15 16 17 20 24 25 23 20 18 17 19 20 21
35 33 32 31 30 31 29 27 24 23 22 19 18 18 18 16 15 15 14 12 10 9 8 7 6 7 7 7 7 6 6 5 5 4 4 5 6 7 6 5 6 7 7 6 4 4 6 7 8 8 8 10 9 9 9 8 8 8 9 9 10 10 10 12 13 13 13 13 14 14 14 14 14 14 16 17 20 24 26 24 21 20 20 20 20
37 35 33 32 33 33 30 27 25 25 23 21 20 21 20 18 17 16 14 11 10 9 9 8 7 7 6 6 5 4 3 3 3 3 5 6 7 6 5 5 7 7 5 4 3 5 6 7 7 8 9 9 9 8 8 8 8 9 9 10 10 10 10 11 12 12 12 13 14 14 14 14 14 14 14 15 17 21 24 26 26 25 24 22 20
38 36 34 33 34 33 30 27 27 26 25 22 23 23 21 20 19 17 14 12 11 11 10 8 7 5 4 4 3 2 2 3 3 4 4 5 5 5 6 7 7 5 4 3 2 2 4 6 8 9 9 8 8 8 7 7 8 9 10 10 11 11 11 11 12 12 12 12 13 14 14 14 15 15 15 16 18 19 21 25 27 27 27 26 23
39 38 35 34 34 32 31 29 29 28 26 25 24 24 23 21 20 18 15 13 12 12 10 8 5 4 3 3 2 2 3 4 4 4 4 5 6 7 7 7 6 4 4 2 2 1 5 8 8 7 6 6 6 7 7 8 8 8 8 9 10 11 11 11 12 12 12 12 12 13 14 13 14 15 14 15 17 19 21 24 25 25 27 28 26
40 39 36 36 35 34 33 32 31 30 29 27 26 25 24 22 21 19 16 14 13 12 9 7 5 4 4 2 2 3 3 4 5 5 5 6 7 7 8 7 6 5 4 1 1 4 7 7 7 7 7 7 6 6 7 7 7 7 8 9 9 10 10 11 11 11 11 12 12 12 12 12 12 12 13 13 15 16 19 21 23 24 26 28 28
40 39 38 37 37 37 36 35 34 33 32 30 28 26 25 24 22 19 17 15 13 11 9 7 6 5 4 3 3 3 4 5 5 5 6 7 7 8 8 6 6 6 4 3 4 6 6 7 6 7 8 8 8 7 7 7 8 8 9 10 10 9 9 9 9 10 11 11 11 11 11 11 11 11 12 13 14 15 17 20 22 22 25 28 29
41 40 40 39 39 39 38 37 35 34 34 32 30 28 26 25 23 20 18 15 13 11 9 8 7 5 4 3 3 4 4 5 6 6 7 8 8 8 7 6 6 6 4 3 5 6 6 5 6 7 8 8 9 8 7 8 8 9 10 10 10 10 10 9 9 9 10 11 11 10 10 10 10 11 11 12 14 15 16 19 22 23 25 28 28
42 41 41 41 40 40 39 37 35 34 35 34 31 29 27 26 24 22 19 16 13 12 10 9 8 6 5 4 4 5 5 5 6 6 7 7 7 7 7 7 7 6 5 5 5 5 5 5 6 7 7 8 8 9 8 9 9 9 10 10 10 10 10 8 9 9 9 10 10 10 9 10 10 10 10 12 13 15 17 19 22 24 26 28 29
41 41 40 41 41 41 40 38 36 35 36 35 33 31 28 27 25 23 20 16 13 12 11 10 9 8 6 5 5 6 6 6 6 7 7 6 6 7 7 7 6 4 5 7 7 7 7 7 8 8 8 8 8 8 8 9 9 9 9 9 9 9 8 8 8 8 8 9 9 9 9 10 10 9 10 11 13 16 18 20 21 22 24 28 31
41 41 41 41 42 41 40 39 37 37 38 37 35 32 29 28 26 24 22 18 14 13 12 11 10 9 7 5 6 6 6 7 7 7 7 6 7 8 8 7 5 5 6 9 10 10 9 9 10 9 9 9 8 8 8 9 10 10 9 9 9 9 9 8 8 8 8 9 10 10 9 9 10 9 9 10 13 17 19 21 21 20 21 24 28
40 41 41 42 42 42 41 40 39 38 39 38 36 33 30 28 26 25 24 20 16 14 13 12 11 9 7 6 6 7 7 7 7 7 6 7 7 7 8 6 6 6 7 8 10 10 10 11 11 11 10 9 9 9 9 10 11 11 10 9 9 10 10 9 8 8 9 9 10 10 10 10 11 9 8 9 14 18 21 22 21 21 21 22 25
38 40 40 41 42 42 41 40 40 39 38 38 36 34 32 29 27 26 24 20 16 14 13 13 12 10 8 7 7 8 8 7 7 7 6 7 7 7 6 5 5 6 6 7 8 9 11 13 12 11 10 9 8 9 9 10 10 11 9 8 8 10 10 10 9 9 10 10 10 9 9 10 11 10 8 10 14 17 20 21 20 21 21 22 24
36 38 38 40 41 41 41 41 41 41 40 38 37 35 33 31 29 27 25 22 18 15 14 14 13 11 9 8 8 8 8 7 7 6 6 6 6 5 4 3 5 5 6 8 9 10 13 14 12 11 11 10 10 9 10 9 9 10 10 9 9 10 11 11 10 11 11 12 11 10 9 10 11 11 10 11 14 16 18 19 20 21 22 23 25
35 39 39 40 40 40 40 40 40 40 39 38 36 35 34 33 31 29 27 24 20 17 16 15 13 11 10 9 9 8 8 8 7 6 6 5 4 3 2 3 5 6 7 8 10 12 14 13 12 12 13 13 13 13 12 11 10 11 12 12 11 11 11 12 11 12 13 13 12 12 11 11 11 12 12 13 14 16 17 19 20 21 22 23 25
34 39 39 40 40 40 39 39 39 40 39 38 37 35 35 34 33 31 28 26 22 19 17 15 13 11 11 10 9 8 8 7 6 6 5 4 3 1 0 3 6 8 9 10 10 13 14 13 12 13 14 15 16 16 16 14 11 11 12 12 13 13 13 14 14 14 14 14 13 13 13 13 12 12 12 14 16 16 17 19 20 21 22 24 25
35 37 38 40 40 39 39 39 39 40 39 38 37 36 36 35 34 32 30 27 24 20 18 16 13 11 11 10 9 9 8 7 6 6 5 3 2 1 3 5 8 9 10 10 11 12 13 12 11 12 14 15 16 17 19 16 12 12 12 13 13 14 15 16 16 16 15 15 14 15 16 14 13 13 14 15 17 17 18 19 20 22 24 25 26
36 36 35 37 38 38 39 39 39 39 38 38 37 36 36 35 34 33 31 28 25 22 20 17 14 11 12 12 10 9 9 7 6 6 5 4 3 4 6 8 9 8 9 10 10 10 10 10 11 12 13 15 16 17 20 18 13 12 13 13 13 13 14 16 16 16 15 15 15 16 17 16 15 16 17 18 18 18 19 20 22 23 25 27 28
36 37 34 34 37 39 40 40 40 40 39 37 37 37 36 34 33 31 30 28 26 24 21 18 14 12 13 12 9 8 9 8 7 6 5 4 4 6 9 11 11 12 12 12 11 12 12 11 11 12 12 13 14 17 20 19 14 11 11 11 11 13 14 15 16 15 15 16 16 16 16 15 15 17 19 20 20 20 22 24 25 26 26 28 30
33 35 35 35 37 40 41 42 42 41 40 39 37 37 35 33 31 29 28 27 26 24 21 18 14 13 15 12 8 10 11 8 6 5 4 5 7 10 13 14 15 16 16 14 14 15 13 12 11 12 12 14 16 19 20 18 14 12 10 10 11 13 15 16 16 17 17 17 17 16 15 14 16 19 20 21 21 22 24 26 27 27 27 28 30
27 31 36 38 38 40 41 41 42 41 40 40 39 38 35 32 31 29 27 26 25 24 22 17 14 16 18 13 8 11 12 8 5 5 5 6 7 9 11 12 13 13 13 14 16 15 14 13 14 14 15 17 18 19 16 14 15 14 11 11 12 13 16 17 17 18 18 17 17 16 15 15 17 19 20 20 21 22 25 26 26 26 26 27 30
22 27 35 39 40 41 41 41 40 39 39 40 40 39 36 33 32 30 28 25 25 26 22 18 17 19 21 16 10 10 11 8 6 7 7 6 7 8 10 10 11 11 11 12 13 12 13 13 14 14 13 14 14 12 11 12 14 13 11 11 12 13 15 18 19 18 17 17 16 14 14 15 17 18 19 20 21 23 24 25 24 24 25 27 29
22 24 31 37 40 40 40 40 39 38 38 39 39 39 36 33 33 31 30 28 28 27 24 21 20 20 20 17 12 10 10 9 8 9 8 8 8 8 9 9 9 9 9 10 10 11 12 13 12 12 12 11 10 9 10 13 13 11 11 12 12 13 16 18 19 18 17 17 15 14 14 16 17 18 19 20 21 22 23 23 23 24 25 26 29
24 24 28 34 37 39 39 39 39 38 37 38 38 37 35 33 34 35 33 32 32 31 26 23 19 16 18 19 15 14 12 10 10 10 9 9 9 9 8 8 8 9 9 9 10 11 11 11 12 12 12 10 9 9 10 11 10 10 10 11 12 13 16 18 18 17 18 17 15 14 15 17 18 18 18 18 20 21 22 22 22 24 25 26 29
26 25 27 31 35 38 39 38 38 38 37 37 37 35 33 34 36 38 36 34 35 33 27 24 15 12 18 24 20 17 15 12 12 12 11 11 11 10 9 9 9 9 8 9 10 11 10 11 12 13 12 11 10 9 10 10 9 8 9 10 12 13 15 17 17 17 17 16 15 15 16 17 18 17 17 16 17 19 19 20 21 23 23 25 27
27 27 26 30 34 35 36 37 37 36 37 37 36 35 36 38 39 38 34 32 33 29 25 23 17 16 21 28 23 19 18 15 14 14 13 13 13 12 12 11 10 9 9 10 10 10 10 11 12 13 14 12 10 9 9 9 10 10 10 11 11 13 15 16 16 16 16 15 14 15 16 16 16 16 16 15 15 16 17 19 21 22 23 23 23
23 29 27 28 32 33 34 34 34 35 36 37 38 38 40 41 40 36 32 31 29 25 24 24 22 20 24 28 23 20 19 17 16 16 14 15 15 14 14 13 11 10 10 10 10 10 10 10 12 15 15 11 9 9 10 11 12 13 13 13 14 14 15 16 16 16 15 14 13 15 16 16 15 15 15 15 15 16 17 19 21 22 22 21 19
12 23 28 28 29 30 30 30 31 34 36 37 39 41 42 42 40 38 36 35 33 30 28 27 26 23 26 27 23 21 20 18 18 17 16 17 17 15 15 14 13 12 12 11 11 12 11 11 13 15 14 10 9 11 12 13 15 15 15 15 16 16 16 16 16 16 15 14 13 14 16 17 15 14 13 14 15 16 18 20 21 22 22 19 17
9 15 23 27 27 27 27 28 30 33 36 38 40 42 42 41 41 41 41 40 38 35 31 29 28 25 26 26 24 23 21 20 20 19 19 19 18 17 16 15 13 13 13 12 12 13 13 12 13 13 12 10 11 14 16 17 17 17 17 16 16 16 16 16 16 16 16 15 14 14 16 17 17 15 14 15 17 18 20 21 22 23 22 19 17
12 13 17 22 25 26 26 28 31 33 36 39 40 41 41 40 40 40 39 39 39 36 31 29 28 27 27 27 26 24 23 23 22 22 22 21 20 19 17 16 14 14 13 13 13 13 12 11 11 11 11 12 14 16 17 18 18 19 18 16 15 15 15 16 17 17 17 16 15 15 15 17 18 16 15 17 19 20 21 21 22 23 22 19 18
12 13 15 17 23 26 27 29 31 34 37 39 39 39 38 38 38 37 37 37 36 32 30 30 29 28 27 27 26 26 26 25 25 25 24 24 23 21 18 17 16 15 14 14 14 13 12 11 11 12 13 14 15 16 18 19 18 18 17 16 14 15 15 16 18 18 17 17 16 15 16 17 17 17 17 18 19 20 21 20 22 23 22 21 20
12 13 14 15 21 26 27 28 31 34 36 37 37 36 35 36 37 37 36 34 33 31 31 31 29 28 27 27 27 27 27 27 28 28 27 26 25 23 21 19 17 16 15 15 14 14 13 12 13 14 15 15 15 17 19 19 17 16 17 16 15 15 16 17 18 18 17 16 16 16 15 16 16 17 17 17 18 20 20 20 22 23 23 23 22
11 12 13 15 20 23 24 27 32 34 35 35 34 32 32 33 35 36 35 32 32 32 31 30 29 28 28 28 28 28 28 29 29 29 29 28 27 25 23 20 19 17 15 15 15 14 14 14 14 14 14 15 16 18 20 18 17 17 17 15 14 14 15 16 17 17 16 16 16 16 15 15 16 16 15 16 18 20 20 20 21 23 24 25 23
11 11 13 15 19 21 23 27 31 32 33 32 31 29 28 29 31 33 33 31 30 29 29 29 29 30 29 29 29 29 29 29 30 31 31 30 28 27 25 22 20 18 17 17 16 16 17 17 16 15 15 16 17 19 19 18 17 17 16 14 13 14 15 16 17 17 17 17 16 16 15 14 15 15 14 16 18 21 21 21 21 23 24 25 23
10 10 13 15 18 21 23 25 29 31 31 30 29 27 25 26 30 33 31 28 26 25 25 27 27 28 28 28 28 29 30 31 31 31 29 29 28 27 26 24 21 19 19 18 17 17 19 18 18 18 18 19 20 20 20 19 18 17 15 14 13 13 15 17 18 18 19 19 17 17 16 15 15 15 14 16 19 20 20 21 21 23 24 24 22
10 11 12 14 18 20 22 25 28 30 30 28 28 24 21 23 28 30 27 23 22 21 22 23 24 24 25 25 25 27 29 31 31 29 25 25 25 25 25 23 21 21 21 21 19 19 20 21 21 21 21 21 22 21 21 19 18 17 15 14 13 14 15 17 19 21 21 19 17 17 17 15 14 13 13 15 17 17 17 19 20 22 23 23 21
12 13 11 13 17 19 20 23 29 31 29 27 25 22 22 25 25 24 22 21 18 15 13 14 16 18 20 22 24 27 29 31 31 29 27 26 26 26 25 22 20 21 22 22 21 22 23 24 24 24 23 22 22 22 21 18 17 17 16 14 14 14 15 18 21 22 21 18 17 17 17 14 13 12 12 13 14 14 15 17 19 20 21 21 21
13 14 13 16 20 20 17 18 24 29 28 26 26 26 25 26 24 22 22 21 17 12 9 9 11 13 15 17 21 25 29 30 29 29 27 24 24 26 25 24 23 24 23 22 23 25 25 25 25 24 23 22 22 21 20 18 17 17 16 14 14 14 17 20 21 20 20 19 18 17 15 13 12 11 11 12 13 13 15 17 18 18 19 20 21
15 16 17 19 19 19 17 15 17 24 28 26 27 28 25 24 22 20 17 14 11 8 7 7 8 9 11 13 16 21 24 26 27 28 25 22 23 24 25 24 26 27 26 25 25 27 27 26 25 24 22 21 21 20 19 18 18 17 16 14 14 16 19 21 20 19 19 18 16 15 14 12 11 10 10 10 12 14 15 17 17 17 17 18 18
17 17 18 17 15 18 21 17 13 18 25 26 25 24 21 19 17 12 7 3 2 4 7 10 10 10 11 13 15 19 21 23 25 26 25 24 25 26 26 26 26 26 26 24 23 25 27 26 24 23 22 20 19 19 20 20 19 18 16 15 15 18 20 19 18 18 18 16 14 13 12 9 8 7 8 10 12 14 16 16 15 14 15 16 17
19 16 15 17 18 21 23 18 12 13 20 22 19 17 15 12 8 6 5 3 5 7 10 12 12 12 13 15 16 18 19 20 22 22 22 20 20 22 24 25 23 22 23 23 23 23 25 25 24 22 20 18 17 18 20 20 20 18 16 15 17 19 19 17 16 16 15 13 11 10 7 5 5 5 7 10 12 14 14 13 12 12 14 16 16
19 17 16 19 22 24 25 20 13 12 17 18 15 13 11 9 8 7 3 7 9 9 10 12 13 14 15 16 16 15 16 16 17 17 17 16 16 17 20 21 20 19 21 23 22 22 24 25 24 21 18 17 18 18 19 20 20 18 16 16 18 19 18 16 14 13 12 10 8 5 3 3 4 5 8 11 11 11 11 11 11 11 13 15 15
19 18 19 21 23 25 28 26 19 15 17 18 14 12 10 8 5 1 10 14 11 10 11 12 13 14 15 14 13 13 14 13 13 14 14 14 15 16 17 19 19 18 19 21 21 22 23 23 23 22 21 22 22 21 19 19 19 18 17 18 18 18 17 14 12 11 9 6 4 4 5 4 5 7 9 11 10 9 9 9 10 11 13 15 16
19 18 20 22 22 23 25 26 22 16 14 13 12 9 7 4 6 12 15 13 9 9 10 10 10 10 9 9 10 12 12 12 13 14 13 13 14 15 16 16 16 16 17 19 20 22 22 21 22 24 25 24 23 21 18 17 18 18 17 17 16 15 13 10 8 7 6 4 4 6 7 6 7 9 10 8 8 8 9 9 11 12 13 15 16
19 17 17 20 21 20 18 18 18 15 12 11 10 8 8 9 13 16 14 10 8 8 7 7 6 5 6 9 11 13 13 13 14 14 13 12 11 12 13 14 15 16 17 17 18 19 20 20 20 22 20 18 17 17 16 16 17 16 14 13 13 11 9 6 4 3 4 5 7 8 8 8 8 8 7 5 6 7 9 11 12 13 14 15 15
Wind_Direction
185 187 192 196 197 200 203 204 204 204 206 208 205 199 198 200 195 198 202 201 208 208 204 217 227 233 232 237 253 258 265 270 262 266 271 281 298 310 320 327 322 312 307 311 303 290 290 293 299 301 304 303 301 302 303 306 308 306 309 309 308 309 308 308 305 302 302 301 301 298 292 292 291 288 283 279 277 276 274 273 272 268 265 263 263
182 186 193 198 194 195 200 199 194 194 198 197 194 191 189 192 188 188 192 196 206 210 209 222 233 240 239 238 247 248 249 242 233 256 281 311 328 323 320 317 310 302 302 310 304 298 306 308 308 307 306 306 304 305 304 305 304 305 309 311 312 310 309 312 307 304 304 304 306 303 301 302 300 296 292 289 291 290 284 278 277 271 266 263 261
183 186 193 196 189 188 193 196 191 190 194 193 193 192 187 191 187 185 194 201 209 215 219 227 233 240 241 239 243 245 244 244 252 272 303 358 0 289 297 302 289 282 289 297 298 300 305 305 305 304 305 306 303 301 301 301 302 306 310 312 315 311 308 310 308 306 303 303 306 308 311 311 308 308 305 302 302 299 293 288 285 280 274 267 261
183 188 193 193 190 189 192 196 191 188 195 196 196 195 191 195 192 187 196 205 208 211 216 219 225 233 237 238 245 249 246 240 226 210 183 151 177 232 271 277 258 259 273 284 291 294 296 298 301 305 306 304 301 302 303 305 308 308 309 312 316 314 310 311 314 313 306 305 306 305 309 308 306 311 308 304 302 298 295 290 286 286 285 276 264
183 188 193 190 190 194 195 196 193 191 196 199 200 198 194 197 195 190 197 205 204 203 207 212 219 227 236 240 241 239 238 234 223 217 210 202 213 243 263 268 272 277 281 290 297 298 297 296 301 307 308 306 308 313 317 319 319 316 314 316 317 317 316 317 322 323 312 308 304 303 307 301 299 311 311 306 303 299 294 284 275 277 282 278 267
186 186 190 189 192 200 200 195 195 196 198 201 201 197 195 199 197 194 200 203 201 206 214 219 224 230 241 244 240 242 241 242 244 244 239 230 231 246 261 272 282 289 295 305 308 303 298 297 302 310 312 314 319 325 330 332 330 328 327 327 328 326 323 322 326 328 319 313 311 308 305 299 305 313 309 305 307 306 302 295 282 272 274 277 275
187 187 190 192 194 199 198 194 198 201 201 203 200 194 195 200 200 199 203 206 206 213 220 220 225 232 242 244 245 246 235 234 246 255 260 262 261 265 274 281 290 308 318 320 318 306 301 302 308 313 314 315 321 325 330 335 336 336 335 335 337 335 329 324 326 330 327 324 325 320 312 308 313 314 305 304 309 309 307 307 301 289 281 278 278
187 188 192 194 195 197 197 195 198 201 203 205 199 193 196 200 201 202 206 209 206 207 209 210 215 224 232 235 235 230 221 229 245 252 262 274 282 287 295 294 302 321 324 325 336 324 309 309 309 309 313 315 320 326 330 336 338 337 337 335 334 334 330 325 327 332 332 329 327 323 319 319 319 315 309 307 307 307 308 310 311 308 299 289 286
186 188 191 194 194 196 199 197 196 201 206 206 199 195 197 197 197 202 206 206 199 196 200 202 203 211 221 222 219 217 226 245 256 258 255 255 266 279 283 280 297 313 311 296 292 296 302 308 308 311 320 321 320 327 332 336 337 334 333 334 334 332 331 330 329 331 333 331 327 323 320 321 321 319 320 319 315 311 310 312 316 316 310 303 301
187 188 190 193 195 198 201 198 194 201 206 205 200 197 196 194 195 200 202 199 197 195 197 197 194 201 212 212 220 245 281 302 306 298 276 267 275 275 272 283 300 311 305 283 263 278 291 292 301 313 321 321 320 326 330 330 332 332 333 337 338 334 332 332 331 331 332 331 329 328 325 325 326 327 329 329 323 316 312 313 318 319 315 310 307
186 188 189 193 197 199 199 194 192 199 203 202 201 199 196 194 194 196 196 196 199 196 193 191 189 203 216 214 232 264 292 312 315 300 277 268 272 274 283 297 307 309 322 5 70 246 273 286 306 323 329 328 325 324 326 328 331 334 338 341 339 332 329 329 331 331 331 332 334 332 331 334 333 332 332 329 325 323 321 318 319 321 317 311 309
185 186 189 191 193 194 193 191 190 195 199 201 202 202 197 192 193 194 194 196 199 197 194 191 193 210 221 222 248 272 302 312 307 293 279 274 277 287 299 304 307 309 316 355 262 271 286 305 323 338 345 343 339 334 330 330 333 336 338 339 335 328 325 326 329 332 331 333 334 333 336 341 339 336 338 336 334 333 330 325 324 326 319 312 313
185 185 187 189 189 189 189 189 190 194 199 203 204 203 195 192 194 196 196 196 195 197 199 200 205 218 228 232 255 286 303 306 309 305 293 290 294 299 303 308 312 310 302 284 288 296 308 321 332 345 348 343 344 346 338 329 330 333 334 336 337 332 330 329 330 334 335 334 336 341 346 347 347 348 346 344 343 339 333 327 326 325 319 314 316
184 185 186 188 188 189 189 190 192 196 201 204 206 204 195 192 196 199 201 198 193 196 203 209 218 229 237 238 262 287 296 305 313 311 300 297 297 297 306 321 317 311 310 304 305 309 311 320 337 344 340 338 341 342 339 331 329 334 338 339 341 340 340 340 338 338 339 337 339 347 353 356 357 354 349 348 346 342 336 332 329 326 321 318 317
185 185 186 188 189 188 189 191 195 198 202 205 208 206 198 195 199 203 204 201 195 198 205 212 221 232 241 249 269 285 297 309 312 306 296 289 288 299 316 318 308 310 321 314 308 310 312 324 335 334 333 335 334 332 329 327 327 335 341 340 341 342 342 340 335 336 339 339 338 341 348 355 354 351 350 347 344 341 339 338 335 331 326 321 317
184 185 186 188 189 189 190 194 197 200 203 207 210 209 202 198 201 206 208 205 200 202 209 213 218 227 237 247 264 283 298 304 305 297 291 290 294 305 310 301 297 311 321 311 308 312 319 329 332 331 334 333 326 322 321 323 328 331 333 333 336 340 343 340 334 333 336 337 336 335 338 345 346 346 344 341 343 345 344 341 336 332 327 321 317
184 185 186 188 188 191 193 196 199 201 204 209 213 213 208 201 202 207 209 207 204 207 211 212 218 226 235 246 261 281 295 299 299 294 293 296 293 293 294 292 297 305 302 301 307 316 325 332 335 337 336 332 330 327 324 327 330 328 326 327 329 331 337 343 341 336 332 332 332 330 330 334 338 341 340 341 349 351 349 349 343 335 329 322 317
187 186 187 189 189 191 194 197 201 203 207 211 214 215 212 206 205 208 209 208 207 211 212 212 218 227 235 246 260 273 283 290 293 292 290 288 284 288 295 303 316 317 308 307 313 321 328 333 338 339 335 330 328 324 321 319 317 319 323 323 322 325 328 332 334 331 329 326 323 319 318 322 328 336 343 348 352 351 353 356 351 341 334 327 320
187 185 186 188 189 191 194 197 200 203 207 212 214 214 213 210 208 210 212 210 209 213 214 213 218 224 231 242 255 265 274 281 284 283 282 283 288 293 298 316 343 344 336 329 325 329 335 338 340 341 338 330 318 308 306 307 307 311 316 318 319 319 319 320 322 323 325 324 319 311 307 313 319 327 338 345 348 352 356 359 354 346 340 332 328
185 184 186 187 189 193 195 198 200 202 206 210 211 213 214 212 210 210 212 211 211 215 216 214 217 221 225 235 248 258 267 273 275 274 275 278 282 285 295 333 346 341 338 334 333 338 341 341 343 346 346 341 330 316 305 299 301 307 311 316 320 316 312 312 314 320 320 316 315 310 300 302 311 315 323 334 341 348 355 0 357 350 345 336 330
185 185 187 189 191 194 196 199 200 201 204 208 210 212 214 213 212 211 212 211 211 216 217 216 216 219 222 231 244 252 258 264 265 267 272 276 277 273 287 326 322 317 319 320 323 333 337 338 341 342 339 338 338 336 324 306 296 301 307 311 315 316 311 305 306 311 310 307 311 310 299 295 302 307 316 324 331 340 349 357 359 354 350 344 335
186 188 188 190 192 194 196 198 199 201 203 206 208 210 211 213 213 213 212 211 213 218 219 215 211 215 221 228 239 245 247 251 257 263 275 284 276 237 61 327 315 308 306 307 310 319 325 327 333 332 327 326 329 332 330 318 297 294 300 301 305 310 308 304 303 304 303 305 310 309 302 297 296 299 307 313 320 331 341 350 357 356 351 348 343
194 192 190 192 194 196 198 199 200 202 203 205 207 208 209 211 212 213 213 211 213 219 221 213 205 209 219 227 240 249 248 249 257 263 273 281 285 36 16 315 300 297 300 303 304 310 315 317 321 322 319 319 321 322 324 321 304 293 296 298 302 308 309 309 309 306 304 306 308 307 304 302 298 294 297 304 312 322 332 341 350 353 349 345 343
199 196 194 195 196 196 198 200 201 201 203 205 207 206 205 209 211 212 213 212 212 218 221 210 199 206 219 227 241 252 252 257 261 261 265 274 304 340 317 290 282 282 286 287 288 293 300 303 308 314 315 315 313 311 315 318 309 298 300 302 304 309 312 313 311 309 307 305 303 301 301 301 299 293 293 299 305 313 323 329 334 339 342 341 339
200 201 198 196 197 199 201 202 202 201 203 205 207 205 202 205 210 211 212 213 212 215 217 207 200 213 222 227 245 255 251 252 250 250 256 255 267 277 269 262 260 263 266 266 271 277 282 290 299 306 308 306 303 301 306 312 312 305 304 306 310 312 313 314 315 312 308 305 304 302 300 301 298 292 291 295 299 308 317 320 320 324 330 333 335
194 201 201 199 200 202 205 208 206 205 206 206 206 203 198 201 208 209 210 212 211 212 214 208 209 220 221 225 254 256 246 242 239 247 261 252 247 248 249 251 256 262 265 267 272 277 278 282 287 290 290 289 289 293 300 307 313 314 308 305 313 316 314 316 317 316 313 311 311 309 305 299 292 289 289 290 293 302 312 315 314 317 322 325 330
191 198 199 200 201 203 207 210 209 208 208 208 207 203 197 197 203 207 208 209 208 211 211 207 216 225 224 230 250 245 242 246 244 253 264 261 259 258 260 265 267 269 270 269 271 273 273 276 280 281 280 279 281 287 295 303 309 314 313 309 314 316 315 318 319 319 319 316 312 307 301 296 295 297 295 290 289 295 304 310 314 317 319 320 325
191 195 197 198 201 205 208 209 210 210 210 211 210 208 204 199 198 203 207 207 208 209 205 202 214 223 228 236 239 232 239 246 242 247 250 252 263 267 270 271 270 270 268 268 272 276 279 285 288 289 289 286 286 290 296 301 303 307 312 314 315 316 319 323 322 321 319 313 308 306 303 304 307 307 302 295 292 294 299 309 317 318 318 318 322
189 194 198 201 204 208 210 211 212 211 211 212 212 211 210 204 200 203 207 208 207 204 199 199 210 223 231 236 236 231 233 230 229 239 241 243 256 263 267 270 271 273 274 277 285 287 289 294 299 306 308 302 297 296 296 298 299 303 308 313 317 321 323 324 321 319 317 312 310 309 308 309 309 306 301 297 295 296 301 310 317 316 316 318 320
193 197 202 205 209 212 213 212 212 211 212 215 213 212 210 206 206 207 207 208 205 199 195 195 205 228 234 231 236 238 231 225 228 234 236 241 249 254 263 274 280 284 286 286 288 287 289 296 304 310 311 306 304 305 303 306 309 311 313 315 316 316 319 320 318 319 319 317 314 311 309 308 307 305 302 297 295 296 302 311 313 312 315 318 320
198 200 200 203 208 212 213 213 213 214 213 214 213 212 208 204 205 205 203 201 198 194 191 193 211 252 238 229 236 238 229 228 232 233 234 239 244 249 257 268 274 281 285 284 287 289 291 296 301 306 310 311 312 312 313 317 322 322 318 311 307 309 316 319 318 319 321 322 320 317 315 312 311 311 307 300 296 297 303 308 308 309 315 318 321
205 204 202 203 205 209 213 214 215 214 212 210 208 205 201 201 202 199 193 186 185 187 193 205 239 269 238 227 234 232 227 230 233 234 238 241 245 250 256 262 267 273 278 281 288 294 293 293 295 301 307 308 306 309 312 312 310 310 308 300 298 307 315 318 318 318 320 323 325 325 324 321 318 317 313 308 303 302 305 306 306 309 315 318 323
209 208 209 210 208 209 215 217 216 214 212 210 205 200 199 200 197 190 184 180 184 197 209 224 254 261 229 224 230 226 225 231 232 235 240 241 245 249 253 260 264 266 270 278 289 291 287 286 288 292 298 300 302 306 303 297 297 299 301 297 293 298 306 312 316 317 316 320 325 327 328 327 324 320 317 314 310 307 308 308 307 311 316 318 325
219 211 212 215 213 211 215 220 219 215 211 208 205 202 200 199 195 192 193 195 201 211 219 234 255 248 223 223 229 225 227 234 235 237 238 240 244 247 251 258 261 262 266 272 280 282 279 280 283 288 290 291 294 293 288 290 295 298 300 297 293 293 297 303 310 313 312 314 319 324 328 331 329 325 323 320 314 312 313 312 312 315 317 319 325
249 226 219 220 219 216 214 218 217 211 205 202 201 201 199 198 199 202 204 208 212 218 227 241 249 238 226 229 232 231 233 237 238 239 238 240 244 244 247 253 255 261 266 269 273 276 274 275 281 289 291 287 286 284 285 291 295 297 300 299 297 296 295 299 306 310 311 312 313 317 326 332 332 328 328 324 318 316 317 315 315 318 318 317 323
255 247 236 231 229 223 215 212 211 205 201 201 201 200 199 201 204 208 211 215 217 223 234 242 239 233 232 235 236 237 241 243 244 243 240 242 245 245 247 249 251 256 262 266 271 273 274 278 285 293 292 287 285 284 285 291 295 298 302 302 301 297 292 297 307 311 312 310 308 312 323 330 330 326 324 320 315 315 317 316 318 319 317 314 318
243 240 247 247 238 226 214 210 208 202 201 203 202 200 201 204 207 210 215 218 220 226 236 237 235 236 239 241 242 244 246 247 248 246 245 247 246 245 246 245 246 252 257 263 271 273 274 277 279 283 283 281 282 282 285 292 297 302 306 306 303 298 292 299 308 311 311 308 306 312 319 323 326 324 318 313 310 312 315 317 318 318 315 312 315
223 228 240 238 226 217 212 210 204 200 203 206 204 203 207 209 210 213 217 219 222 230 234 233 235 241 246 249 251 251 252 252 252 252 252 252 249 247 246 245 246 249 253 260 268 271 273 274 274 275 275 276 280 282 286 293 301 307 310 309 304 296 293 301 308 310 310 307 306 311 313 315 321 320 313 309 309 312 315 317 318 316 313 313 317
215 231 234 219 209 206 207 206 200 198 204 207 205 207 211 214 216 218 219 220 225 230 231 232 238 244 249 253 256 257 258 257 257 258 257 254 253 250 247 245 246 249 252 258 263 264 267 271 274 272 268 267 271 277 285 293 300 305 309 310 304 296 295 304 311 313 313 310 308 308 306 310 318 316 309 308 310 312 314 316 317 316 316 317 319
211 230 229 215 205 200 200 200 199 200 204 204 203 204 208 213 216 216 215 219 226 231 233 235 240 245 250 256 259 259 259 260 262 263 260 258 257 254 249 248 248 249 251 254 256 258 261 267 270 265 257 256 261 271 282 289 293 300 306 307 300 293 296 307 313 316 317 313 309 306 302 306 314 311 308 310 310 309 311 315 317 317 318 318 316
209 223 225 220 211 205 201 197 196 198 201 200 197 198 203 210 211 210 212 220 228 233 236 239 244 250 255 260 263 265 268 269 266 263 259 256 254 251 248 247 249 253 255 253 251 251 254 257 258 256 255 256 261 272 282 284 287 296 302 302 297 292 297 307 312 315 315 312 308 304 300 304 311 309 309 312 311 309 309 312 316 318 318 315 310
212 220 225 225 216 208 202 195 192 195 196 194 194 195 198 202 205 207 212 222 228 232 237 243 249 256 260 264 271 274 273 266 257 252 252 254 254 252 250 249 253 258 258 252 245 245 249 253 256 259 262 262 265 275 283 282 285 294 299 300 298 294 296 303 308 312 313 309 304 300 298 304 310 308 310 312 310 309 310 312 316 319 318 317 311
213 214 216 218 208 201 195 188 186 187 188 189 192 194 191 192 198 204 208 213 218 224 235 246 254 261 267 271 274 271 262 257 255 255 256 260 261 259 259 261 261 258 255 251 248 248 252 257 261 265 266 266 269 277 280 279 283 292 297 297 296 293 296 302 308 313 313 307 302 299 299 307 310 305 307 309 307 310 313 314 317 320 322 324 318
199 203 204 200 195 192 192 189 185 184 185 188 189 186 183 184 189 194 198 203 209 217 233 250 256 264 273 276 273 263 258 260 264 261 260 265 266 263 262 264 263 260 259 259 260 261 260 259 264 271 272 271 273 275 274 275 280 287 292 293 293 295 302 308 312 314 309 304 301 300 303 309 309 303 302 303 306 312 315 316 318 320 324 328 325
183 188 192 192 190 190 195 203 195 182 179 182 182 179 179 183 188 193 198 205 215 229 253 272 272 271 277 278 274 268 266 269 270 269 272 279 280 274 269 268 269 269 267 264 268 273 270 265 271 281 281 274 273 274 272 271 274 279 285 289 293 302 310 314 314 309 303 301 301 302 306 309 304 298 296 299 307 313 315 319 324 324 328 334 338
179 181 188 193 191 182 185 201 211 186 174 172 177 183 186 189 192 195 191 191 267 300 307 311 307 298 293 288 281 277 276 277 279 284 290 293 291 286 280 278 279 277 271 269 273 276 273 271 278 286 283 275 275 276 272 269 271 276 283 287 295 306 312 313 309 302 299 299 299 301 306 304 295 293 294 298 306 311 315 325 334 336 341 346 349
180 186 195 197 189 177 176 190 212 194 172 166 170 180 183 179 168 143 111 53 339 313 306 305 302 298 298 297 291 286 284 284 286 291 297 300 300 294 283 279 280 275 269 272 277 275 273 276 282 286 282 276 272 269 267 269 274 278 282 288 297 306 311 311 305 298 294 294 297 300 301 291 284 291 296 299 306 312 320 333 344 348 354 356 355
184 190 194 191 184 176 172 175 180 169 161 159 155 152 152 151 142 129 66 338 315 298 293 295 294 294 297 298 299 298 298 296 293 295 299 302 302 295 283 277 278 276 275 278 278 273 273 277 281 282 278 269 263 262 264 270 274 273 276 286 296 304 310 309 303 296 293 294 297 291 270 259 268 282 293 300 307 315 327 341 350 357 2 1 359
186 187 185 180 172 164 165 168 166 152 148 148 142 143 157 165 160 328 326 319 303 282 279 281 282 287 293 298 302 303 303 300 296 298 301 301 297 292 284 279 281 283 284 284 279 273 273 276 276 274 268 259 256 258 261 263 261 261 270 284 295 302 306 304 299 295 294 292 274 244 231 239 260 278 293 304 311 320 332 344 354 1 3 2 1
189 184 178 173 165 157 159 164 165 165 164 158 157 174 197 230 293 302 301 293 271 259 265 268 272 278 282 287 290 292 295 296 294 295 295 291 285 281 279 280 285 286 283 282 279 276 275 275 274 272 269 263 258 257 255 250 248 254 268 283 292 298 299 296 291 286 276 246 221 227 234 245 268 287 300 311 321 329 336 345 355 1 1 1 3
184 178 173 171 169 166 166 170 177 191 198 189 190 220 258 282 284 279 270 255 248 259 272 280 284 280 269 269 274 279 285 289 292 295 292 282 273 271 274 281 286 285 281 279 277 276 276 277 275 272 266 256 247 244 243 243 247 256 269 282 289 291 289 279 254 231 228 226 224 232 245 262 281 294 303 318 335 340 338 340 348 355 358 359 2